Météo par heure à Junglinster

Ce jour, 17 Juin, Jeudi

Heure Température Précipitation Vent Pression Humidité
00:00 +20°C° 0 mm 1 m/s 728 mmHg 85%
01:00 +20°C° 0 mm 1 m/s 728 mmHg 85%
02:00 +20°C° 0 mm 1 m/s 727 mmHg 86%
03:00 +20°C° 0 mm 1 m/s 727 mmHg 86%
04:00 +21°C° 0.1 mm 1 m/s 728 mmHg 85%
05:00 +22°C° 0.1 mm 1 m/s 728 mmHg 85%
06:00 +23°C° 0 mm 2 m/s 728 mmHg 82%
07:00 +24°C° 0 mm 2 m/s 728 mmHg 78%
08:00 +25°C° 0 mm 3 m/s 729 mmHg 74%
09:00 +26°C° 0 mm 3 m/s 729 mmHg 70%
10:00 +27°C° 0 mm 3 m/s 729 mmHg 67%
11:00 +28°C° 0 mm 3 m/s 729 mmHg 64%
12:00 +29°C° 0 mm 3 m/s 729 mmHg 61%
13:00 +29°C° 0 mm 3 m/s 729 mmHg 60%
14:00 +29°C° 0 mm 2 m/s 729 mmHg 60%
15:00 +29°C° 0 mm 2 m/s 729 mmHg 60%
16:00 +29°C° 0 mm 1 m/s 729 mmHg 65%
17:00 +28°C° 0 mm 1 m/s 729 mmHg 71%
18:00 +26°C° 0 mm 0 m/s 728 mmHg 77%
19:00 +24°C° 0 mm 0 m/s 729 mmHg 80%
20:00 +24°C° 0 mm 1 m/s 729 mmHg 83%
21:00 +23°C° 0 mm 1 m/s 729 mmHg 85%
22:00 +22°C° 0.6 mm 1 m/s 729 mmHg 88%
23:00 +21°C° 0.6 mm 1 m/s 729 mmHg 91%

Demain, 18 Juin, Vendredi

Heure Température Précipitation Vent Pression Humidité
00:00 +21°C° 0.6 mm 1 m/s 729 mmHg 93%
01:00 +21°C° 0.5 mm 1 m/s 729 mmHg 93%
02:00 +20°C° 0.5 mm 1 m/s 730 mmHg 94%
03:00 +20°C° 0.5 mm 1 m/s 730 mmHg 94%
04:00 +21°C° 0 mm 1 m/s 729 mmHg 93%
05:00 +21°C° 0 mm 1 m/s 729 mmHg 92%
06:00 +21°C° 0 mm 1 m/s 729 mmHg 90%
07:00 +23°C° 0 mm 2 m/s 729 mmHg 83%
08:00 +24°C° 0 mm 2 m/s 729 mmHg 76%
09:00 +26°C° 0 mm 3 m/s 729 mmHg 69%
10:00 +27°C° 0 mm 4 m/s 729 mmHg 66%
11:00 +27°C° 0 mm 4 m/s 729 mmHg 62%
12:00 +28°C° 0 mm 5 m/s 730 mmHg 58%
13:00 +28°C° 0 mm 5 m/s 729 mmHg 62%
14:00 +27°C° 0 mm 5 m/s 729 mmHg 65%
15:00 +27°C° 0 mm 5 m/s 729 mmHg 68%
16:00 +26°C° 0.2 mm 4 m/s 729 mmHg 73%
17:00 +23°C° 0.2 mm 4 m/s 730 mmHg 79%
18:00 +22°C° 0.2 mm 3 m/s 730 mmHg 84%
19:00 +21°C° 0.1 mm 3 m/s 730 mmHg 87%
20:00 +20°C° 0.1 mm 3 m/s 730 mmHg 90%
21:00 +19°C° 0.1 mm 2 m/s 730 mmHg 93%
22:00 +18°C° 0 mm 2 m/s 730 mmHg 94%
23:00 +17°C° 0 mm 2 m/s 730 mmHg 94%

Après-demain, 19 Juin, Samedi

Heure Température Précipitation Vent Pression Humidité
00:00 +16°C° 0 mm 1 m/s 730 mmHg 95%
01:00 +16°C° 0 mm 1 m/s 731 mmHg 96%
02:00 +15°C° 0 mm 1 m/s 731 mmHg 96%
03:00 +15°C° 0 mm 1 m/s 731 mmHg 97%
04:00 +15°C° 0 mm 1 m/s 731 mmHg 94%
05:00 +16°C° 0 mm 1 m/s 731 mmHg 92%
06:00 +18°C° 0 mm 1 m/s 732 mmHg 90%
07:00 +19°C° 0 mm 1 m/s 732 mmHg 86%
08:00 +20°C° 0 mm 1 m/s 732 mmHg 82%
09:00 +21°C° 0 mm 1 m/s 732 mmHg 77%
10:00 +22°C° 0 mm 1 m/s 732 mmHg 73%
11:00 +24°C° 0 mm 1 m/s 731 mmHg 68%
12:00 +25°C° 0 mm 1 m/s 731 mmHg 64%
13:00 +26°C° 0 mm 1 m/s 730 mmHg 62%
14:00 +27°C° 0 mm 2 m/s 730 mmHg 61%
15:00 +27°C° 0 mm 2 m/s 730 mmHg 60%
16:00 +27°C° 0 mm 2 m/s 729 mmHg 65%
17:00 +26°C° 0 mm 2 m/s 728 mmHg 71%
18:00 +25°C° 0 mm 3 m/s 727 mmHg 77%
19:00 +24°C° 0.4 mm 3 m/s 727 mmHg 78%
20:00 +22°C° 0.4 mm 4 m/s 726 mmHg 79%
21:00 +21°C° 0.4 mm 4 m/s 725 mmHg 80%
22:00 +21°C° 2.4 mm 4 m/s 725 mmHg 83%
23:00 +21°C° 2.4 mm 4 m/s 725 mmHg 86%

20 Juin, Dimanche

Heure Température Précipitation Vent Pression Humidité
00:00 +21°C° 2.4 mm 4 m/s 724 mmHg 89%
01:00 +20°C° 0.4 mm 4 m/s 724 mmHg 89%
02:00 +20°C° 0.4 mm 4 m/s 724 mmHg 89%
03:00 +20°C° 0.4 mm 4 m/s 724 mmHg 88%
04:00 +20°C° 0 mm 4 m/s 724 mmHg 89%
05:00 +19°C° 0 mm 4 m/s 725 mmHg 89%
06:00 +19°C° 0 mm 4 m/s 725 mmHg 89%
07:00 +19°C° 1.3 mm 4 m/s 725 mmHg 91%
08:00 +19°C° 1.3 mm 4 m/s 725 mmHg 92%
09:00 +18°C° 1.3 mm 4 m/s 725 mmHg 94%
10:00 +19°C° 0.4 mm 4 m/s 726 mmHg 89%
11:00 +20°C° 0.4 mm 5 m/s 726 mmHg 85%
12:00 +21°C° 0.4 mm 5 m/s 726 mmHg 80%
13:00 +22°C° 0.1 mm 4 m/s 726 mmHg 76%
14:00 +23°C° 0.1 mm 4 m/s 725 mmHg 72%
15:00 +24°C° 0.1 mm 3 m/s 725 mmHg 68%
16:00 +24°C° 0.1 mm 2 m/s 725 mmHg 72%
17:00 +23°C° 0.1 mm 2 m/s 725 mmHg 77%
18:00 +23°C° 0.1 mm 1 m/s 725 mmHg 81%
19:00 +21°C° 0.2 mm 1 m/s 725 mmHg 85%
20:00 +20°C° 0.2 mm 1 m/s 724 mmHg 88%
21:00 +18°C° 0.2 mm 1 m/s 724 mmHg 92%
22:00 +18°C° 0.8 mm 1 m/s 724 mmHg 93%
23:00 +18°C° 0.8 mm 1 m/s 724 mmHg 94%

21 Juin, Lundi

Heure Température Précipitation Vent Pression Humidité
00:00 +18°C° 0.8 mm 1 m/s 724 mmHg 96%
01:00 +18°C° 0.5 mm 1 m/s 724 mmHg 96%
02:00 +16°C° 0.5 mm 1 m/s 724 mmHg 96%
03:00 +16°C° 0.5 mm 1 m/s 724 mmHg 96%
04:00 +18°C° 0.2 mm 1 m/s 724 mmHg 96%
05:00 +18°C° 0.2 mm 1 m/s 724 mmHg 96%
06:00 +17°C° 0.2 mm 2 m/s 724 mmHg 95%
07:00 +18°C° 0.2 mm 2 m/s 724 mmHg 92%
08:00 +19°C° 0.2 mm 3 m/s 725 mmHg 88%
09:00 +20°C° 0.2 mm 3 m/s 725 mmHg 84%
10:00 +20°C° 0.4 mm 3 m/s 725 mmHg 81%
11:00 +21°C° 0.4 mm 2 m/s 725 mmHg 78%
12:00 +21°C° 0.4 mm 2 m/s 725 mmHg 75%
13:00 +20°C° 2.2 mm 2 m/s 725 mmHg 79%
14:00 +19°C° 2.2 mm 2 m/s 725 mmHg 83%
15:00 +19°C° 2.2 mm 2 m/s 725 mmHg 87%
16:00 +18°C° 1 mm 2 m/s 725 mmHg 89%
17:00 +18°C° 1 mm 2 m/s 725 mmHg 90%
18:00 +17°C° 1 mm 2 m/s 726 mmHg 92%
19:00 +16°C° 0.5 mm 2 m/s 726 mmHg 94%
20:00 +15°C° 0.5 mm 2 m/s 726 mmHg 95%
21:00 +15°C° 0.5 mm 2 m/s 726 mmHg 96%
22:00 +14°C° 0 mm 2 m/s 726 mmHg 96%
23:00 +13°C° 0 mm 2 m/s 726 mmHg 97%

22 Juin, Mardi

Heure Température Précipitation Vent Pression Humidité
00:00 +13°C° 0 mm 1 m/s 727 mmHg 97%
01:00 +13°C° 0 mm 1 m/s 727 mmHg 97%
02:00 +13°C° 0 mm 1 m/s 727 mmHg 97%
03:00 +13°C° 0 mm 1 m/s 727 mmHg 97%
04:00 +13°C° 0 mm 2 m/s 727 mmHg 97%
05:00 +14°C° 0 mm 2 m/s 727 mmHg 96%
06:00 +13°C° 0 mm 3 m/s 728 mmHg 95%
07:00 +13°C° 0.1 mm 3 m/s 728 mmHg 94%
08:00 +13°C° 0.1 mm 3 m/s 728 mmHg 94%
09:00 +13°C° 0.1 mm 3 m/s 729 mmHg 94%
10:00 +13°C° 0.1 mm 3 m/s 729 mmHg 91%
11:00 +13°C° 0.1 mm 3 m/s 729 mmHg 88%
12:00 +14°C° 0.1 mm 3 m/s 730 mmHg 85%
13:00 +14°C° 0 mm 3 m/s 730 mmHg 82%
14:00 +16°C° 0 mm 3 m/s 730 mmHg 78%
15:00 +16°C° 0 mm 3 m/s 730 mmHg 74%
16:00 +15°C° 0 mm 4 m/s 731 mmHg 76%
17:00 +14°C° 0 mm 4 m/s 731 mmHg 78%
18:00 +13°C° 0 mm 4 m/s 731 mmHg 80%
19:00 +12°C° 0 mm 3 m/s 732 mmHg 82%
20:00 +11°C° 0 mm 3 m/s 732 mmHg 84%
21:00 +10°C° 0 mm 3 m/s 733 mmHg 87%
22:00 +10°C° 0 mm 2 m/s 733 mmHg 85%
23:00 +10°C° 0 mm 2 m/s 733 mmHg 83%
Voir plus

Nous avons besoin de votre consentement

Meteoprog et ses fournisseurs de services peuvent stocker et accéder à des données personnelles telles que des cookies, des identifiants d'appareils ou d'autres technologies similaires sur votre appareil et traiter ces données pour personnaliser le contenu et les publicités, ainsi que pour fournir des fonctionnalités de médias sociaux et analyser le trafic.

  • Stocker et/ou accéder à des informations sur votre appareil

    Des cookies, des identifiants d'appareils ou d'autres informations peuvent être stockés ou accessibles sur votre appareil aux fins indiquées ci-dessus.

  • Annonces et contenus personnalisés, mesure des annonces et des contenus, connaissance de l'audience et développement de produits

    Les annonces et le contenu peuvent être personnalisés en fonction d'un profil. D'autres données peuvent être ajoutées pour mieux personnaliser les annonces et le contenu. Les performances des publicités et du contenu peuvent être mesurées. Il est possible d'obtenir des informations sur le public qui a vu les publicités et le contenu. Ces données peuvent être utilisées pour développer ou améliorer l'expérience de l'utilisateur, les systèmes et les logiciels.

En cliquant sur "J'accepte", vous autorisez l'utilisation de cookies, des identifiants d'appareils, des balises web ou d'autres technologies similaires. Vos paramètres peuvent être modifiés dans le navigateur de votre appareil.

Dans certains cas, des intérêts légitimes peuvent être invoqués plutôt qu'un consentement. Vous pouvez en savoir plus à ce sujet dans notre Politique de confidentialité et de cookies.